Wetbulb
62.72 62.04 63.68 60.96 51.83 50.25 47.85 47.31 50.77 50.38 51.82 57.13 56.90 57.52 58.07 59.98 57.29 54.98 68.36 69.70 69.43 69.72 70.70 71.40 71.46 71.93 71.91 71.50 71.06 70.21 69.57 69.53 69.67 70.15 70.24 69.94 69.97 70.13 69.91 69.38 68.92 67.96 67.60 68.42 67.66 67.72 67.85 67.66 68.17
58.88 61.40 61.90 57.70 48.79 46.56 47.90 50.61 48.04 51.82 55.72 56.20 56.97 58.49 57.53 58.01 63.80 64.97 67.05 69.50 69.61 69.38 70.16 71.07 70.56 71.67 71.74 71.54 71.20 70.78 69.69 69.16 68.84 68.66 69.31 69.34 69.35 69.50 68.96 68.25 67.93 67.54 66.83 68.90 68.61 67.82 67.34 67.49 67.58
58.95 61.15 56.59 52.77 49.53 46.15 47.36 49.66 51.44 54.19 55.18 54.97 56.05 60.01 59.45 60.02 64.81 65.75 69.00 69.36 69.50 69.02 69.94 70.51 70.33 71.77 71.50 71.06 71.03 70.71 70.33 69.66 68.84 68.35 67.31 67.74 68.56 68.17 67.57 67.02 67.56 67.96 67.76 68.69 68.42 67.51 66.85 67.08 67.86
59.98 58.90 56.53 48.62 47.12 49.56 49.53 50.81 53.42 53.74 54.68 55.34 55.77 54.91 62.81 65.46 64.95 66.53 69.15 69.31 69.43 69.38 69.92 69.37 70.51 71.89 71.64 71.14 70.76 70.50 70.05 69.60 69.51 69.03 68.67 67.80 67.40 66.67 67.72 67.20 67.40 68.01 67.93 68.52 68.53 67.55 66.60 67.41 68.42
59.75 56.14 48.54 47.23 48.06 50.34 52.09 52.24 53.27 52.57 54.06 54.74 55.13 53.97 57.43 60.60 59.49 63.74 68.55 68.95 69.15 69.54 69.85 70.42 69.87 71.08 71.27 71.11 70.91 70.63 70.28 69.99 69.73 69.26 68.59 68.35 68.25 67.23 67.32 67.07 67.62 67.49 68.36 67.79 68.08 67.82 67.58 67.97 68.26
52.49 53.98 45.88 44.59 47.43 49.79 51.93 53.56 53.15 52.85 54.33 54.73 54.08 54.63 56.80 59.84 56.81 58.06 67.99 69.07 69.51 69.41 69.79 69.68 67.15 68.68 69.77 70.32 70.36 70.22 70.08 69.77 69.45 69.10 68.71 68.40 68.17 67.13 67.37 67.46 67.59 66.95 67.80 67.65 67.42 67.84 67.27 68.14 68.51
52.02 49.08 45.51 46.46 46.42 47.07 49.48 52.48 50.67 51.74 52.87 53.56 54.80 52.03 59.15 58.03 55.62 55.08 65.48 68.95 69.29 69.55 69.14 69.56 69.43 68.39 65.87 68.02 68.50 69.08 69.34 69.06 68.84 68.49 68.19 67.57 67.25 66.77 67.27 66.80 67.16 67.68 68.04 68.15 67.72 67.15 67.12 67.92 68.37
53.19 50.72 44.99 46.23 44.93 45.58 50.36 49.69 51.65 51.65 51.25 54.02 54.63 51.52 53.31 60.07 54.95 55.49 59.59 66.14 68.46 68.71 68.45 68.35 68.60 68.33 68.26 68.73 65.49 66.22 67.39 67.70 67.75 67.37 66.35 65.17 65.00 65.12 65.25 64.52 65.68 67.34 67.75 67.57 67.32 66.23 67.17 67.88 67.78
54.51 46.34 44.04 45.26 45.42 46.28 49.54 47.13 50.19 50.99 49.93 51.16 52.93 53.87 56.51 54.02 54.44 55.94 56.10 56.15 60.69 65.30 68.03 68.36 68.24 68.70 68.82 68.81 67.29 64.49 64.58 65.26 65.25 65.35 63.65 63.34 65.48 64.82 64.39 63.13 63.84 65.75 66.53 66.89 66.97 66.18 65.99 66.07 65.22
49.17 45.53 45.06 47.86 47.99 46.42 48.10 46.79 47.67 46.31 47.24 47.62 49.20 52.46 53.61 52.72 52.62 52.26 53.03 54.90 55.25 55.49 56.89 63.12 67.76 68.18 68.57 68.41 68.67 68.63 69.12 69.12 68.73 68.21 67.67 66.37 65.26 65.32 64.04 62.04 61.53 63.49 63.86 65.50 66.23 65.95 64.80 63.48 65.36
49.01 44.97 46.81 45.86 47.40 46.84 45.61 45.65 47.66 45.29 44.54 47.65 47.55 49.34 51.52 50.23 50.12 49.77 50.13 50.71 51.02 51.99 52.94 54.16 57.22 59.89 64.53 67.98 68.69 69.13 69.41 69.34 68.93 68.46 67.81 66.91 66.09 65.03 64.45 64.33 63.64 64.41 60.12 64.14 64.63 64.52 63.81 64.14 64.82
42.72 46.90 46.46 46.36 45.38 44.62 43.97 46.11 44.34 45.26 46.01 48.79 47.52 48.21 48.05 47.13 47.24 47.87 48.20 48.71 49.23 49.93 50.62 52.06 53.22 53.96 54.73 56.72 62.02 67.02 68.61 68.89 68.67 68.41 68.02 66.78 65.46 65.00 64.80 63.90 64.98 64.05 64.11 63.62 64.44 63.89 64.25 64.04 64.55
42.79 44.26 44.26 45.14 44.17 43.87 44.12 42.35 42.52 43.26 46.59 47.70 47.11 46.26 45.92 46.54 47.46 48.51 48.65 49.04 49.64 49.16 49.93 50.66 51.87 52.42 53.09 53.79 54.81 57.20 59.76 63.25 66.54 67.30 67.03 66.50 65.51 64.60 64.11 63.89 64.53 63.92 63.55 62.65 63.66 64.09 63.95 63.72 63.78
43.54 43.06 43.37 43.54 42.62 42.69 40.24 41.63 40.61 44.36 45.18 45.01 46.12 45.80 46.20 46.38 46.55 47.56 47.92 47.78 47.97 48.65 49.34 50.39 50.67 51.40 51.92 52.46 53.48 53.67 55.68 58.12 60.63 63.25 66.17 66.42 65.76 64.49 63.64 64.17 62.51 62.26 62.99 63.00 61.93 63.64 63.96 63.39 63.09
42.81 39.48 42.52 42.42 41.80 40.60 41.07 39.73 39.43 44.68 44.42 43.01 43.39 44.19 44.96 45.56 46.50 46.01 46.60 46.78 47.87 48.63 49.52 49.91 50.53 51.35 51.43 51.73 52.85 53.51 54.45 54.48 56.22 58.11 60.28 62.85 65.19 63.61 62.43 63.19 62.49 61.72 61.57 63.44 61.14 61.75 62.06 62.27 62.63
39.30 39.36 39.25 40.09 39.84 40.71 39.47 39.74 43.77 42.76 41.97 42.06 42.81 43.52 44.01 44.75 45.55 46.39 46.84 47.04 47.92 48.69 48.98 50.08 50.35 50.60 50.81 51.25 52.24 52.54 53.05 54.01 55.65 57.05 58.46 59.66 60.74 63.46 64.03 61.76 61.09 61.78 63.16 61.21 61.75 60.35 60.21 60.45 61.02
39.98 38.32 39.22 38.99 38.92 38.38 38.12 39.02 43.59 41.92 41.32 41.18 42.33 43.07 43.77 44.37 45.44 46.28 46.87 47.38 47.94 48.60 48.92 49.49 50.45 50.53 51.09 51.65 51.80 52.46 53.01 53.38 54.57 55.57 56.96 58.38 59.98 61.26 62.12 62.80 62.83 62.17 60.82 60.71 60.28 60.18 60.15 59.34 59.29
37.89 37.08 38.04 36.39 38.07 37.83 37.07 37.33 41.53 44.15 43.71 43.04 43.43 43.72 43.72 43.83 44.37 45.92 46.69 47.64 48.05 48.64 49.14 49.85 49.75 49.64 50.01 50.51 51.33 52.48 53.36 53.43 54.32 55.37 56.56 57.38 58.09 59.32 60.24 61.31 61.78 61.89 61.61 59.80 59.62 59.20 59.77 59.30 58.65
35.86 35.27 35.51 38.85 38.19 34.09 36.49 37.49 40.05 43.10 43.18 42.87 43.20 42.83 42.37 42.48 44.63 45.80 46.94 47.85 48.01 48.56 48.72 48.65 49.07 50.56 50.76 50.46 50.80 52.16 52.39 54.37 54.82 55.69 56.00 56.12 56.61 57.16 57.50 59.15 60.32 60.91 59.68 60.17 60.09 58.69 57.91 58.16 58.81
35.55 34.97 35.26 37.43 35.87 33.74 36.09 35.05 39.60 41.99 42.01 41.04 41.07 41.03 41.72 42.81 43.49 44.98 46.25 46.76 47.21 46.60 46.23 46.40 47.08 48.40 50.15 50.68 51.00 51.07 50.97 51.34 51.85 52.65 53.74 54.87 55.84 56.84 56.82 57.54 58.26 59.00 58.92 59.32 58.83 58.74 56.82 57.41 56.42
35.63 33.98 34.31 31.86 34.75 37.14 33.76 37.07 43.28 40.51 39.33 40.40 40.93 42.33 42.58 42.77 43.22 44.24 44.68 45.49 45.79 44.98 45.05 44.89 45.74 46.45 47.84 48.96 49.32 49.06 49.30 48.79 48.27 49.14 49.85 51.23 52.31 53.07 54.23 54.98 55.86 57.73 58.46 57.37 57.98 58.63 57.61 55.92 54.04
32.49 34.11 32.53 31.92 31.26 31.98 33.28 30.68 38.31 42.21 39.76 39.28 40.47 41.19 42.00 42.78 43.44 43.95 43.53 44.23 44.93 44.86 45.46 45.17 45.28 45.20 45.52 46.93 46.90 47.02 46.29 45.23 46.78 47.73 48.97 49.98 51.47 51.57 51.87 52.19 52.71 53.99 55.76 56.35 56.84 58.31 58.13 55.88 54.02
33.21 33.99 32.56 32.05 30.29 25.89 29.92 28.03 38.02 38.56 38.52 40.51 41.05 41.58 42.48 43.54 43.78 43.36 43.60 44.13 44.76 45.57 45.52 45.23 45.09 45.11 46.16 46.61 46.64 45.85 45.18 45.54 46.55 46.89 47.11 47.73 48.69 49.63 50.11 50.27 50.44 50.98 52.09 53.89 55.24 56.79 57.33 56.71 54.02
35.06 33.01 32.24 30.80 30.00 27.12 27.03 29.61 36.99 40.86 40.08 39.28 40.61 42.37 42.86 43.25 43.80 43.37 43.70 44.31 44.63 46.08 46.65 45.93 44.31 44.63 45.17 45.59 46.11 45.60 44.82 44.71 44.44 44.96 45.12 45.90 46.91 47.48 48.24 48.45 48.63 49.01 50.06 51.70 53.36 55.24 56.14 56.20 55.08
33.09 31.67 32.39 30.55 29.84 31.49 29.05 26.07 35.43 41.87 40.50 39.96 39.83 40.63 42.20 43.58 42.50 42.56 43.13 43.37 44.23 44.46 44.46 43.85 43.33 43.06 44.87 45.48 45.29 44.90 44.19 43.96 43.26 43.28 43.32 43.52 44.05 45.07 46.19 47.22 47.27 47.47 48.15 49.07 51.40 52.40 53.92 55.05 54.81
32.59 31.17 30.41 25.98 29.02 31.26 26.16 27.39 36.16 38.79 38.87 41.12 42.06 41.58 41.59 41.90 42.45 42.41 42.73 43.29 43.18 42.00 42.13 42.78 42.90 43.30 44.18 43.91 43.69 43.91 43.27 42.60 42.51 42.43 42.29 42.10 42.51 43.46 44.52 44.80 45.96 46.95 47.62 48.13 48.63 50.31 51.04 52.65 54.42
31.13 28.39 30.73 27.31 17.49 22.97 32.19 35.00 38.70 40.86 39.82 39.37 39.30 40.44 40.90 41.43 42.07 42.12 42.68 42.56 41.85 41.45 41.78 42.11 43.14 43.46 43.40 41.95 41.20 40.12 39.73 39.04 39.20 40.32 40.05 39.71 40.56 40.60 40.90 41.94 42.69 44.32 45.96 46.85 47.95 48.39 49.86 50.26 52.36
30.97 32.68 28.25 29.24 23.66 24.64 32.12 31.05 34.78 39.14 36.82 36.62 37.68 38.99 40.45 40.76 41.09 41.65 42.19 41.87 41.04 40.91 41.89 43.68 44.41 42.07 40.93 40.26 38.76 37.86 37.70 37.83 37.73 38.17 38.32 38.23 39.33 39.95 40.07 40.47 40.88 42.46 43.84 45.28 46.19 46.98 49.34 49.90 50.37
28.68 28.63 28.57 28.22 27.65 25.63 26.05 33.10 40.74 40.35 37.54 38.65 38.41 39.10 39.75 41.15 41.55 41.56 41.48 40.30 40.09 41.15 43.57 43.67 41.78 39.39 37.86 37.52 36.92 36.93 36.64 37.01 37.61 37.13 37.49 37.51 38.13 38.35 38.72 39.76 40.13 40.03 41.98 43.05 43.57 44.81 46.33 47.95 49.45
31.05 30.29 30.66 26.51 27.00 26.65 22.57 26.56 40.81 38.04 37.12 37.04 38.14 39.39 40.79 40.92 40.59 40.51 39.56 38.96 39.19 42.28 42.14 39.72 38.67 37.35 36.38 36.37 35.93 35.95 35.76 36.39 36.27 36.10 36.64 37.27 36.77 37.64 37.20 38.34 38.72 39.29 40.67 41.63 41.31 41.39 43.43 45.36 47.77
MSLP
1011.92 1010.73 1010.06 1009.37 1008.40 1006.66 1005.06 1004.86 1005.03 1005.10 1005.32 1005.66 1006.06 1005.90 1005.52 1005.87 1006.14 1007.70 1009.13 1009.39 1009.76 1009.69 1009.95 1011.35 1011.88 1012.15 1012.53 1012.91 1013.22 1013.49 1013.71 1013.81 1013.90 1014.04 1014.15 1014.30 1014.54 1014.70 1014.88 1015.01 1015.25 1015.39 1015.39 1015.47 1015.47 1015.78 1015.99 1016.07 1016.33
1011.86 1010.74 1009.88 1008.43 1007.40 1005.46 1004.04 1004.51 1005.33 1005.33 1005.74 1006.39 1006.40 1006.30 1006.17 1006.36 1007.53 1008.28 1008.89 1009.73 1009.85 1009.87 1010.20 1011.02 1011.94 1012.22 1012.48 1012.75 1013.09 1013.40 1013.84 1014.05 1014.15 1014.30 1014.37 1014.50 1014.65 1014.74 1014.85 1015.10 1015.25 1015.34 1015.43 1015.66 1015.66 1015.88 1016.20 1016.42 1016.55
1011.63 1010.88 1009.28 1007.70 1006.19 1004.95 1004.11 1005.20 1005.23 1006.20 1006.81 1006.44 1006.33 1006.62 1006.62 1007.39 1008.51 1008.92 1009.75 1009.86 1009.89 1010.03 1010.29 1010.76 1011.80 1012.34 1012.71 1013.00 1013.28 1013.60 1013.89 1014.07 1014.15 1014.25 1014.40 1014.60 1014.83 1014.93 1015.02 1015.19 1015.35 1015.41 1015.49 1015.54 1015.73 1016.06 1016.31 1016.60 1016.83
1010.86 1010.02 1009.16 1007.72 1005.66 1005.13 1005.25 1005.74 1006.11 1006.52 1006.87 1007.10 1006.97 1006.69 1008.15 1009.24 1009.33 1009.86 1009.90 1009.88 1009.85 1010.03 1010.31 1011.15 1011.70 1012.24 1012.61 1012.98 1013.31 1013.58 1013.84 1014.06 1014.23 1014.31 1014.34 1014.44 1014.71 1015.05 1015.33 1015.35 1015.39 1015.54 1015.66 1015.68 1015.77 1016.15 1016.49 1016.73 1016.88
1010.95 1009.39 1008.01 1006.73 1005.60 1005.25 1006.07 1006.49 1006.92 1006.89 1006.68 1006.98 1007.44 1006.83 1007.82 1009.45 1009.88 1009.97 1009.82 1010.04 1009.92 1010.12 1010.44 1011.08 1011.80 1012.13 1012.46 1012.70 1013.05 1013.38 1013.64 1013.93 1014.04 1014.17 1014.32 1014.52 1014.70 1014.79 1015.06 1015.46 1015.71 1015.79 1015.69 1015.88 1016.00 1016.14 1016.55 1016.78 1016.96
1009.97 1009.20 1007.49 1006.05 1005.21 1005.62 1006.69 1007.16 1007.67 1007.39 1007.22 1007.22 1007.59 1007.39 1007.91 1009.55 1009.92 1010.10 1009.92 1009.87 1010.14 1010.12 1010.54 1010.84 1011.86 1012.31 1012.59 1012.85 1013.09 1013.34 1013.55 1013.84 1014.08 1014.23 1014.35 1014.45 1014.58 1014.75 1014.97 1015.11 1015.25 1015.71 1015.86 1016.04 1016.18 1016.31 1016.58 1016.77 1017.03
1009.66 1008.74 1007.20 1006.23 1005.95 1006.15 1007.04 1008.37 1008.25 1007.71 1007.46 1007.56 1008.09 1007.92 1008.13 1009.33 1010.13 1010.25 1009.98 1010.01 1010.19 1010.26 1010.88 1010.94 1011.31 1012.04 1012.56 1012.79 1013.00 1013.27 1013.49 1013.72 1013.94 1014.12 1014.32 1014.45 1014.63 1014.78 1014.95 1015.05 1015.16 1015.27 1015.54 1015.84 1016.23 1016.48 1016.74 1016.90 1017.01
1010.07 1009.10 1007.42 1006.90 1006.36 1006.87 1008.12 1008.96 1008.93 1008.75 1008.18 1008.89 1008.94 1007.87 1007.97 1008.70 1010.25 1010.28 1010.14 1010.14 1010.21 1010.53 1010.90 1011.13 1011.12 1011.36 1011.83 1012.21 1012.81 1013.01 1013.19 1013.35 1013.50 1013.75 1014.02 1014.27 1014.58 1014.74 1014.98 1015.19 1015.27 1015.29 1015.46 1015.59 1015.83 1016.35 1016.66 1016.95 1017.20
1010.81 1009.25 1007.46 1007.12 1007.55 1007.58 1009.04 1009.23 1009.51 1009.55 1009.27 1009.06 1008.89 1008.85 1009.14 1009.97 1010.24 1010.17 1010.18 1010.33 1010.42 1010.80 1010.89 1011.12 1011.31 1011.39 1011.58 1011.86 1012.11 1012.64 1012.96 1013.19 1013.42 1013.67 1013.89 1014.13 1014.13 1014.16 1014.54 1014.85 1014.96 1015.30 1015.51 1015.77 1015.80 1016.01 1016.42 1016.83 1017.17
1010.42 1009.19 1007.88 1008.52 1008.62 1008.86 1009.42 1009.93 1009.71 1009.80 1009.03 1008.83 1008.87 1009.03 1009.79 1010.19 1010.11 1010.13 1010.05 1009.97 1010.35 1010.74 1011.03 1011.16 1011.35 1011.39 1011.36 1011.59 1011.86 1012.14 1012.16 1012.54 1012.80 1013.01 1013.14 1013.56 1013.67 1013.63 1013.82 1014.18 1014.83 1015.03 1015.27 1015.61 1015.87 1016.06 1016.21 1016.68 1016.73
1010.39 1009.62 1009.59 1009.67 1010.29 1010.51 1010.34 1010.34 1010.29 1009.98 1008.96 1008.50 1008.40 1008.34 1008.79 1009.94 1010.04 1010.16 1010.20 1010.26 1010.50 1010.83 1011.04 1011.23 1011.34 1011.52 1011.50 1011.54 1011.75 1011.98 1011.98 1012.11 1012.26 1012.36 1012.69 1012.92 1013.01 1013.38 1013.48 1013.62 1014.14 1014.67 1015.06 1015.09 1015.46 1015.79 1015.90 1016.07 1016.24
1010.99 1010.32 1010.63 1010.81 1011.46 1011.47 1011.13 1010.83 1010.47 1009.95 1009.04 1008.64 1009.19 1009.17 1009.47 1009.78 1009.89 1010.00 1010.17 1010.37 1010.57 1010.72 1010.82 1011.00 1011.16 1011.32 1011.58 1011.58 1011.35 1011.50 1011.63 1011.64 1011.89 1011.91 1012.11 1012.50 1012.72 1012.58 1012.67 1012.92 1013.32 1013.85 1013.97 1014.54 1014.54 1014.95 1015.15 1015.37 1015.59
1011.40 1010.79 1011.27 1011.43 1011.89 1011.84 1011.69 1011.21 1010.86 1009.47 1009.10 1009.11 1009.27 1009.65 1009.80 1009.73 1009.80 1009.99 1010.27 1010.59 1010.67 1010.59 1010.65 1010.86 1010.95 1011.08 1011.34 1011.46 1011.44 1011.28 1011.26 1011.14 1011.40 1011.81 1011.97 1012.01 1012.20 1012.32 1012.30 1012.29 1012.40 1012.73 1013.28 1013.47 1013.93 1014.28 1014.39 1014.55 1014.81
1012.09 1011.80 1011.40 1011.42 1011.68 1011.70 1011.76 1010.91 1010.92 1008.72 1008.92 1009.04 1009.01 1009.27 1009.44 1009.39 1009.56 1009.87 1010.13 1010.26 1010.23 1010.31 1010.57 1010.77 1010.91 1011.04 1011.22 1011.38 1011.46 1011.43 1011.25 1011.01 1010.85 1010.99 1011.31 1011.59 1011.85 1012.14 1012.28 1012.06 1012.27 1012.42 1012.41 1012.71 1013.17 1013.30 1013.79 1014.03 1014.26
1012.45 1011.86 1010.94 1011.08 1011.62 1011.68 1011.78 1009.75 1008.91 1008.51 1008.91 1008.88 1008.91 1008.97 1008.93 1009.02 1009.39 1009.65 1009.94 1010.06 1010.29 1010.42 1010.51 1010.72 1010.89 1010.98 1011.06 1011.16 1011.22 1011.27 1011.27 1011.09 1010.97 1010.82 1010.80 1010.92 1011.20 1011.72 1011.98 1011.88 1011.90 1012.16 1012.00 1012.28 1012.27 1012.67 1013.04 1013.64 1013.91
1012.24 1011.87 1010.75 1011.25 1011.81 1011.80 1011.72 1008.36 1007.74 1008.10 1008.52 1008.35 1008.37 1008.41 1008.50 1008.69 1008.95 1009.13 1009.52 1009.94 1010.18 1010.37 1010.51 1010.68 1010.85 1010.97 1011.05 1011.05 1011.06 1011.01 1010.86 1010.79 1010.66 1010.58 1010.57 1010.49 1010.51 1010.40 1010.85 1011.44 1011.76 1011.48 1011.70 1011.66 1012.47 1012.30 1012.94 1013.12 1013.39
1011.71 1010.88 1010.81 1011.10 1012.31 1012.27 1011.71 1008.75 1007.62 1008.17 1008.19 1007.92 1008.01 1007.98 1007.95 1008.07 1008.22 1008.88 1009.29 1009.78 1010.00 1010.15 1010.27 1010.43 1010.61 1010.75 1010.81 1010.82 1010.84 1010.81 1010.74 1010.66 1010.44 1010.22 1010.10 1010.15 1010.31 1010.36 1010.14 1010.51 1011.04 1011.15 1011.87 1011.71 1011.68 1011.73 1012.25 1012.65 1013.16
1011.62 1011.41 1011.25 1011.92 1012.55 1012.57 1011.66 1009.23 1007.42 1007.36 1007.11 1006.94 1007.05 1007.23 1007.45 1007.63 1008.06 1008.54 1009.12 1009.54 1009.78 1009.91 1010.07 1010.36 1010.59 1010.71 1010.69 1010.62 1010.57 1010.48 1010.38 1010.28 1010.03 1009.86 1009.79 1009.80 1009.80 1009.79 1009.86 1009.94 1010.46 1010.89 1010.96 1011.30 1011.73 1011.39 1011.32 1011.59 1012.33
1012.94 1012.71 1012.53 1012.46 1013.18 1013.34 1011.50 1009.69 1007.22 1006.84 1006.65 1006.43 1006.44 1006.63 1007.25 1007.72 1008.08 1008.63 1009.07 1009.44 1009.65 1009.88 1010.06 1010.08 1010.13 1010.14 1010.26 1010.26 1010.20 1010.09 1009.86 1009.66 1009.48 1009.38 1009.31 1009.25 1009.20 1009.35 1009.41 1009.36 1009.52 1009.92 1010.60 1010.49 1010.71 1010.70 1010.93 1010.57 1010.98
1013.70 1013.51 1013.65 1013.57 1014.16 1014.11 1011.98 1009.76 1007.29 1006.17 1006.06 1006.63 1007.06 1007.09 1007.46 1007.80 1008.11 1008.52 1008.89 1009.22 1009.53 1009.76 1009.90 1009.93 1009.94 1010.02 1010.10 1010.18 1010.14 1009.99 1009.83 1009.57 1009.31 1009.18 1009.00 1008.85 1008.95 1008.67 1008.79 1008.84 1008.91 1009.02 1009.24 1009.83 1010.13 1010.34 1010.36 1010.43 1009.91
1014.20 1014.20 1014.36 1015.08 1014.77 1013.75 1013.09 1009.45 1006.45 1006.11 1006.58 1006.86 1007.30 1007.32 1007.44 1007.58 1007.86 1008.32 1008.72 1008.99 1009.31 1009.83 1010.11 1010.05 1010.06 1010.00 1010.18 1010.21 1010.12 1009.97 1009.81 1009.60 1009.45 1009.21 1009.00 1008.79 1008.58 1008.35 1008.30 1008.38 1008.31 1008.27 1008.40 1008.51 1009.12 1009.24 1009.43 1009.36 1009.63
1014.94 1015.24 1015.57 1015.73 1015.67 1015.15 1014.26 1010.77 1007.06 1005.41 1005.93 1006.44 1006.74 1007.11 1007.43 1007.77 1008.14 1008.26 1008.72 1009.01 1009.30 1009.96 1010.20 1010.12 1009.99 1009.84 1009.82 1009.89 1009.78 1009.63 1009.36 1008.89 1008.60 1008.30 1007.92 1007.71 1007.67 1007.52 1007.49 1007.57 1007.52 1007.54 1007.60 1007.54 1007.69 1008.30 1008.63 1008.70 1009.05
1015.64 1016.08 1016.15 1016.14 1016.33 1016.51 1014.53 1012.64 1006.90 1005.73 1005.32 1005.43 1006.05 1006.70 1007.10 1007.49 1008.01 1008.47 1008.87 1009.18 1009.54 1009.90 1009.98 1010.01 1009.88 1009.82 1009.86 1009.87 1009.69 1009.29 1008.79 1008.42 1007.91 1007.66 1007.22 1007.06 1006.77 1006.51 1006.33 1006.49 1006.46 1006.54 1006.72 1006.67 1006.86 1006.86 1007.64 1007.85 1007.92
1016.57 1016.33 1016.25 1016.46 1016.34 1015.84 1013.93 1012.20 1006.94 1004.57 1004.46 1005.14 1005.70 1006.29 1006.84 1007.41 1008.12 1008.73 1009.21 1009.45 1009.52 1009.74 1009.85 1009.94 1009.96 1009.82 1009.77 1009.68 1009.34 1008.92 1008.54 1008.10 1007.65 1007.38 1007.03 1006.65 1006.34 1006.06 1005.91 1005.76 1005.70 1005.68 1005.43 1005.42 1005.71 1005.93 1006.08 1006.63 1007.03
1016.87 1016.44 1016.00 1015.94 1015.63 1014.14 1013.23 1012.11 1007.24 1004.59 1004.57 1004.93 1005.43 1006.21 1006.98 1007.38 1008.20 1008.69 1008.95 1009.25 1009.53 1009.66 1009.91 1010.01 1009.85 1009.64 1009.57 1009.24 1008.98 1008.61 1008.25 1007.89 1007.37 1007.09 1006.70 1006.30 1005.98 1005.67 1005.48 1005.52 1005.20 1004.93 1004.80 1004.71 1004.61 1004.74 1005.07 1005.21 1005.70
1016.45 1016.41 1016.22 1015.85 1015.03 1013.58 1013.13 1009.91 1005.73 1005.13 1005.06 1005.19 1005.65 1006.35 1007.02 1007.60 1008.16 1008.78 1009.11 1009.34 1009.48 1009.72 1009.84 1009.72 1009.67 1009.52 1009.48 1009.18 1008.84 1008.55 1008.25 1007.82 1007.23 1006.81 1006.52 1006.10 1005.74 1005.37 1005.32 1004.98 1004.89 1004.54 1004.33 1004.26 1004.01 1003.86 1003.95 1004.26 1004.49
1017.00 1016.73 1016.75 1016.37 1016.54 1014.59 1010.66 1008.20 1005.93 1004.41 1004.90 1005.49 1005.99 1006.48 1006.91 1007.51 1008.07 1008.63 1008.97 1009.31 1009.49 1009.68 1009.59 1009.52 1009.46 1009.39 1009.30 1009.18 1008.83 1008.43 1008.11 1007.73 1007.06 1006.58 1006.25 1005.74 1005.51 1005.27 1005.29 1005.08 1004.80 1004.41 1004.00 1003.66 1003.46 1003.12 1003.04 1003.40 1003.42
1017.77 1017.60 1017.04 1016.58 1015.44 1013.21 1009.92 1008.41 1006.15 1005.42 1005.78 1006.22 1006.59 1006.97 1007.28 1007.85 1008.25 1008.53 1008.80 1009.11 1009.45 1009.67 1009.67 1009.60 1009.38 1009.31 1009.28 1008.97 1008.48 1008.00 1007.60 1007.30 1006.72 1006.17 1005.66 1005.33 1004.83 1004.55 1004.23 1004.27 1004.20 1003.90 1003.59 1003.13 1002.85 1002.68 1002.37 1002.44 1002.59
1018.03 1017.58 1017.39 1016.89 1015.57 1013.56 1010.61 1007.51 1006.24 1006.75 1007.33 1007.25 1007.47 1007.81 1007.79 1008.06 1008.22 1008.53 1008.77 1009.19 1009.48 1009.56 1009.54 1009.63 1009.60 1009.41 1009.16 1008.79 1008.21 1007.56 1006.91 1006.48 1006.04 1005.37 1004.86 1004.60 1004.22 1003.91 1003.57 1003.32 1003.18 1003.43 1003.11 1002.96 1002.59 1002.30 1002.04 1001.78 1001.89
1017.61 1017.45 1017.23 1017.03 1015.75 1014.54 1013.05 1007.62 1007.08 1007.78 1008.14 1008.40 1008.51 1008.25 1008.26 1008.41 1008.66 1008.87 1008.99 1009.20 1009.49 1009.52 1009.65 1010.07 1009.74 1009.28 1008.87 1008.27 1007.69 1006.98 1006.28 1005.71 1004.98 1004.30 1003.79 1003.41 1003.33 1003.15 1002.70 1002.61 1002.64 1002.60 1002.44 1002.48 1002.39 1002.18 1001.87 1001.53 1001.22
Wind_Speed
17 10 6 5 6 6 10 4 3 5 5 3 1 6 9 10 9 5 5 5 5 4 11 16 13 16 15 14 13 11 10 10 10 9 9 10 11 11 12 12 10 8 8 10 11 10 10 11 9
11 10 6 4 7 9 6 6 8 4 5 3 2 4 5 6 8 8 7 7 4 5 9 14 12 14 15 15 14 14 12 10 9 9 9 9 9 9 9 9 9 8 8 10 12 12 10 11 9
10 6 5 5 7 11 6 3 5 2 1 3 3 3 3 6 8 4 8 4 2 6 8 11 13 12 13 12 13 12 11 11 10 10 10 10 10 8 7 7 7 9 9 12 12 12 11 11 10
5 5 5 8 12 8 6 2 1 6 4 0 3 5 6 5 3 5 4 2 3 6 8 13 12 10 13 13 13 14 13 12 11 11 11 9 8 9 6 6 6 7 10 12 13 13 11 10 11
5 4 8 8 12 9 4 2 3 6 1 4 2 7 2 5 2 3 3 2 2 5 6 10 9 8 12 14 15 14 14 13 13 12 12 12 12 10 9 7 8 10 10 10 12 12 12 11 10
5 5 7 10 11 4 4 3 6 9 10 6 6 9 1 7 1 3 2 2 1 3 4 6 9 5 7 11 13 13 14 14 13 13 12 12 12 11 10 12 11 9 11 10 11 11 11 11 11
10 6 11 10 8 7 5 2 9 10 12 10 3 6 5 7 3 3 2 1 2 2 4 6 9 11 6 5 9 12 13 14 14 14 13 12 10 11 11 13 12 12 13 12 11 10 11 11 10
6 5 5 6 5 7 4 3 3 5 8 4 2 6 8 10 2 1 0 2 2 3 4 5 6 8 10 11 12 11 12 13 13 13 12 11 10 10 10 10 11 11 12 14 13 11 10 11 9
3 7 7 6 6 1 3 4 4 2 8 6 5 8 7 5 1 2 3 3 1 0 4 4 5 7 8 5 6 11 11 11 12 12 11 11 9 13 14 13 10 12 11 12 13 14 10 10 7
7 6 4 6 3 3 1 5 8 6 9 11 12 11 4 5 5 5 5 5 4 3 3 5 5 6 7 6 9 8 10 11 12 13 14 12 14 11 11 12 12 13 11 12 14 15 12 10 9
4 6 7 1 5 4 7 9 10 9 11 14 14 9 12 7 8 7 8 6 5 5 5 6 5 5 6 5 4 5 5 6 7 13 12 11 10 8 6 6 9 9 11 9 12 10 10 12 10
6 6 5 2 1 3 6 7 10 15 18 12 6 8 7 10 10 9 9 8 7 8 8 8 9 7 7 5 6 7 6 7 7 8 13 10 7 10 9 8 10 10 9 12 11 8 12 13 15
9 6 4 5 5 9 10 15 15 20 19 14 13 11 12 11 12 10 9 9 10 11 10 10 10 9 8 8 7 7 8 7 7 7 9 9 8 10 9 9 9 10 10 11 11 11 12 13 14
3 7 10 6 6 7 9 12 3 6 2 8 13 15 15 12 10 8 9 11 12 11 10 8 8 9 9 8 9 8 8 8 7 6 7 11 9 7 7 9 9 9 9 11 11 12 12 12 13
4 8 7 7 3 3 8 14 17 15 9 9 10 12 11 10 10 10 11 11 10 7 7 6 7 7 7 9 8 7 7 8 7 8 10 10 9 7 8 9 10 6 6 12 10 10 11 11 11
5 4 5 6 2 3 5 12 7 4 6 10 9 9 10 12 13 14 11 10 8 6 6 6 6 8 9 9 7 7 8 7 7 7 8 11 12 12 11 8 6 9 9 10 11 11 10 9 11
5 7 6 2 4 5 3 14 3 2 7 12 13 15 15 16 16 12 11 9 7 6 5 6 6 8 8 9 8 8 9 8 8 8 7 9 10 11 11 8 8 9 7 10 12 13 13 10 10
5 6 3 7 5 6 14 26 25 17 16 19 16 15 15 14 12 8 8 6 6 4 4 5 5 7 8 7 7 7 7 8 8 7 8 11 9 11 10 8 10 10 9 9 8 12 13 13 12
5 6 11 11 6 7 10 20 27 18 19 19 15 10 8 8 9 9 8 6 4 4 3 5 7 8 7 7 7 7 8 7 8 7 10 11 10 11 11 8 9 10 11 12 13 11 11 14 12
4 8 6 8 3 5 13 25 28 21 9 5 4 4 8 10 10 9 9 6 5 4 4 7 8 10 9 7 7 7 7 7 7 7 8 10 11 11 10 11 10 11 9 12 13 14 10 6 10
7 7 5 5 10 8 13 13 8 3 4 5 5 4 6 9 9 8 7 6 4 4 7 8 8 8 9 11 8 8 9 9 9 10 10 12 14 13 13 13 11 11 10 10 13 13 15 12 6
7 3 1 6 8 4 6 8 11 3 6 7 8 9 9 8 5 5 5 7 5 4 7 10 10 10 11 12 10 13 12 14 12 12 11 12 15 15 15 15 14 14 10 12 12 12 13 12 12
3 1 4 5 3 4 2 4 9 2 4 8 11 11 11 9 8 7 6 6 7 7 9 10 11 12 13 13 13 12 14 13 11 11 16 15 15 17 16 15 15 15 13 14 15 13 15 12 10
2 4 4 2 2 4 4 4 8 4 3 5 5 10 11 10 8 7 6 6 7 8 10 10 13 13 13 14 15 16 18 17 14 13 13 11 11 11 16 16 16 17 16 16 15 15 16 14 11
3 5 3 3 3 2 5 4 12 9 3 2 5 5 5 7 7 6 7 5 11 11 11 11 13 14 15 16 16 16 18 18 19 17 13 14 11 11 13 15 15 14 17 17 16 16 16 15 12
5 2 3 7 4 4 2 8 6 1 3 5 6 5 4 7 8 7 6 10 11 12 13 13 14 16 16 16 16 15 17 12 12 14 13 11 11 11 13 12 14 16 17 17 17 15 15 15 14
5 4 3 2 2 4 6 7 14 9 11 10 9 8 9 6 5 7 9 12 12 12 13 15 15 16 16 15 15 16 15 17 14 16 14 12 14 13 16 15 17 18 19 18 18 14 16 16 15
4 2 2 3 5 7 5 5 11 4 1 4 4 1 1 1 5 7 11 13 12 13 14 15 15 14 15 17 16 14 15 16 17 16 16 16 15 15 15 16 16 16 18 18 17 15 15 16 13
3 4 4 4 3 5 9 5 2 5 7 3 5 5 5 11 12 11 12 11 12 13 14 14 14 16 16 14 14 14 15 16 15 15 15 15 16 16 16 15 14 15 14 15 14 14 15 16 16
1 2 4 4 3 4 4 12 11 7 5 3 7 7 10 11 13 13 12 11 12 14 15 14 13 15 16 13 15 15 16 15 15 15 16 15 15 15 17 15 14 14 15 17 17 17 15 17 17
Wind_Direction
299 310 295 260 250 229 257 229 285 207 203 72 313 273 359 29 357 25 87 69 19 164 164 169 175 171 168 166 159 161 170 170 169 168 174 177 177 176 176 178 169 181 182 184 162 155 150 139 148
308 308 240 281 250 241 248 167 214 206 39 301 240 211 228 110 62 104 147 12 29 144 170 181 171 178 178 173 170 163 176 181 179 185 181 178 184 183 166 159 167 182 202 190 158 149 163 153 170
280 267 264 239 246 251 288 157 191 163 253 227 216 282 26 72 68 34 28 352 89 148 174 173 157 183 186 183 169 168 177 189 194 187 188 191 181 181 180 181 187 208 191 177 165 156 175 169 184
271 201 228 251 245 249 283 196 143 224 167 278 332 229 110 56 30 6 23 80 139 156 176 121 156 183 183 177 175 175 183 194 198 199 192 181 207 211 194 200 208 207 197 183 173 167 167 191 187
233 267 244 242 257 266 237 274 239 244 250 229 305 238 127 97 65 11 48 132 152 162 176 155 162 188 189 183 182 184 187 196 197 200 191 192 195 205 196 202 230 223 199 196 192 176 178 205 190
205 278 235 243 249 208 248 237 258 248 253 249 255 259 228 113 68 17 39 126 145 179 177 183 169 202 200 193 192 193 194 198 200 203 205 203 215 196 208 196 205 214 207 203 202 178 202 202 182
257 231 256 278 274 259 244 65 245 255 256 249 47 264 88 167 68 5 8 80 149 171 196 198 183 199 211 222 204 200 201 202 204 204 209 211 206 201 214 201 206 198 211 195 196 192 221 200 184
272 269 256 225 253 249 100 247 314 261 264 36 298 247 252 114 65 12 41 59 158 165 207 223 220 205 211 215 208 210 206 205 205 204 209 208 209 209 213 208 213 207 209 194 188 204 213 206 200
269 248 254 250 242 83 112 263 141 334 268 234 233 280 48 72 48 217 196 199 195 180 199 227 209 227 230 221 201 206 209 213 212 213 216 211 218 212 217 214 203 216 210 206 195 195 210 216 202
235 256 301 20 332 277 246 271 314 278 248 247 246 244 207 247 242 258 253 253 211 224 272 296 232 246 241 244 249 211 224 220 223 223 222 215 220 226 209 207 197 208 208 208 205 205 200 202 218
181 256 24 285 320 314 294 280 259 268 267 258 262 267 219 254 257 256 257 254 266 281 269 254 256 287 273 256 251 266 249 237 238 228 225 225 221 224 223 207 197 210 211 217 208 208 216 215 217
253 247 273 337 6 284 274 311 266 254 253 296 271 289 258 254 262 262 262 262 269 275 282 275 266 260 260 268 260 236 239 253 248 243 231 226 226 215 215 209 204 203 209 213 213 204 213 215 215
244 279 269 269 264 268 276 265 267 270 265 262 261 245 249 251 264 257 255 261 272 277 282 282 268 259 262 260 267 268 271 256 252 247 249 243 224 219 218 219 216 201 207 201 214 213 211 211 214
5 286 276 274 270 267 274 274 294 251 204 249 239 237 243 243 244 236 248 264 271 280 280 283 275 266 260 261 264 272 277 281 266 254 253 261 255 237 241 224 209 223 214 206 207 214 217 211 210
301 292 268 230 263 269 301 267 226 249 207 240 221 230 240 235 226 238 274 275 274 263 275 284 287 285 273 270 268 264 263 265 267 269 260 251 238 227 259 225 210 225 230 221 206 215 221 226 210
261 254 273 114 281 123 290 279 177 172 210 244 243 241 238 228 233 252 267 255 245 251 267 283 285 277 274 272 273 269 265 263 260 253 255 260 255 237 220 213 236 248 225 198 214 205 213 210 212
194 292 269 269 48 322 280 292 273 125 239 256 259 260 255 250 253 266 248 226 229 243 265 293 305 295 284 273 268 268 267 265 262 266 265 257 255 260 267 228 227 212 221 242 213 209 208 198 196
325 293 272 285 43 312 283 273 281 278 273 274 272 267 266 261 250 224 196 204 220 233 270 286 286 287 285 271 262 261 261 261 258 256 252 256 256 249 244 243 231 230 221 215 241 233 213 203 194
300 283 283 293 37 306 274 283 286 287 281 278 273 260 236 219 189 177 175 172 177 219 253 310 315 297 287 276 262 260 255 248 242 246 253 251 249 252 255 246 234 226 234 232 225 214 237 207 195
260 289 289 289 21 297 300 293 283 287 264 270 282 194 174 178 181 174 173 167 166 130 14 344 332 317 301 284 280 280 281 287 288 280 265 256 257 248 245 238 236 237 229 229 229 229 226 226 174
251 255 296 282 319 262 307 269 276 170 210 231 216 223 184 179 179 177 182 185 161 43 0 350 330 321 299 289 283 275 268 262 256 255 257 251 252 246 243 244 241 236 232 228 233 222 222 229 201
277 45 284 297 337 303 12 288 292 265 243 203 203 204 205 201 208 199 199 212 203 345 344 335 322 307 293 285 277 271 267 266 262 266 261 252 237 237 238 237 238 238 239 235 227 222 224 219 227
16 346 312 311 300 321 169 232 274 165 226 215 204 208 208 214 212 216 234 258 279 300 321 312 304 299 295 291 283 275 267 268 268 265 266 258 256 252 241 238 237 233 236 237 237 221 221 222 209
61 272 221 238 163 240 142 231 286 244 140 154 168 201 213 209 222 228 259 292 308 308 313 306 304 295 292 285 280 277 277 278 276 272 270 265 260 253 253 245 243 241 235 230 233 235 223 219 214
243 278 274 245 214 277 144 213 251 284 165 195 166 170 212 212 215 252 284 296 315 316 309 305 301 296 291 289 287 285 283 283 279 277 272 270 266 261 259 251 248 244 242 239 231 230 233 223 210
186 300 300 289 289 356 158 240 244 346 349 260 238 242 254 230 233 264 273 314 318 310 304 305 302 300 299 297 296 295 291 287 287 285 283 282 280 277 272 267 260 251 246 240 235 230 227 230 221
129 205 51 293 141 266 232 260 266 274 228 242 231 247 245 238 236 256 299 316 316 309 311 309 305 298 301 302 292 288 288 283 280 280 274 266 261 261 265 271 269 261 249 244 237 234 226 226 225
288 30 230 170 281 271 228 261 262 262 88 122 151 188 200 321 306 274 312 320 317 313 310 304 307 311 305 299 295 291 288 284 281 278 274 270 270 267 256 252 256 261 253 248 237 237 234 227 224
158 225 222 289 243 277 300 265 19 25 20 23 63 358 344 322 317 305 313 313 313 311 310 316 317 308 302 302 298 291 290 289 282 277 274 270 267 262 263 255 248 253 258 247 246 245 240 239 230
46 305 244 264 205 255 302 265 308 61 72 9 299 291 306 316 312 315 310 315 314 316 322 319 308 308 305 302 302 296 298 292 284 278 275 270 265 261 260 254 247 249 243 239 241 246 251 243 239